QPF
0.04 0.04 0.03 0.02 0.02 0.02 0.02 0.02 0.03 0.02 0.01 0.02 0.02 0.02 0.03 0.03 0.05 0.05 0.03 0.02 0.02 0.02 0.03 0.03 0.02 0.02 0.04 0.06 0.04 0.04 0.07 0.09 0.08 0.08 0.08 0.08 0.08 0.08 0.07 0.07 0.06 0.07 0.08 0.09
0.03 0.03 0.02 0.02 0.02 0.02 0.02 0.03 0.03 0.02 0.01 0.02 0.02 0.02 0.02 0.03 0.03 0.03 0.02 0.02 0.02 0.02 0.03 0.02 0.01 0.01 0.02 0.04 0.04 0.04 0.06 0.09 0.10 0.10 0.08 0.08 0.08 0.09 0.09 0.10 0.10 0.10 0.11 0.12
0.02 0.01 0.01 0.02 0.03 0.03 0.03 0.03 0.03 0.02 0.01 0.02 0.02 0.03 0.02 0.02 0.02 0.02 0.02 0.02 0.02 0.02 0.03 0.02 0.01 0.01 0.02 0.02 0.03 0.04 0.05 0.06 0.08 0.09 0.08 0.06 0.06 0.06 0.06 0.07 0.06 0.05 0.06 0.08
0.01 0.01 0.01 0.01 0.02 0.03 0.03 0.02 0.03 0.03 0.02 0.02 0.02 0.03 0.02 0.01 0.01 0.01 0.01 0.01 0.02 0.02 0.02 0.03 0.02 0.01 0.01 0.01 0.02 0.03 0.04 0.05 0.07 0.08 0.07 0.07 0.08 0.07 0.04 0.03 0.03 0.02 0.03 0.03
0.02 0.01 0.00 0.01 0.01 0.02 0.02 0.02 0.02 0.03 0.04 0.04 0.02 0.02 0.01 0.01 0.00 0.00 0.00 0.01 0.01 0.01 0.02 0.02 0.01 0.01 0.01 0.01 0.01 0.02 0.02 0.03 0.05 0.07 0.08 0.07 0.05 0.03 0.02 0.02 0.02 0.02 0.01 0.01
0.02 0.01 0.01 0.00 0.01 0.01 0.02 0.03 0.03 0.05 0.06 0.06 0.02 0.01 0.01 0.01 0.00 0.00 0.01 0.01 0.01 0.01 0.01 0.01 0.01 0.01 0.01 0.01 0.01 0.01 0.02 0.02 0.03 0.05 0.06 0.06 0.05 0.04 0.04 0.04 0.04 0.03 0.02 0.02
0.01 0.01 0.01 0.00 0.01 0.01 0.02 0.05 0.06 0.06 0.07 0.05 0.01 0.01 0.03 0.01 0.00 0.00 0.00 0.01 0.01 0.01 0.01 0.01 0.01 0.01 0.01 0.01 0.01 0.01 0.01 0.02 0.03 0.04 0.05 0.05 0.06 0.06 0.06 0.06 0.07 0.07 0.06 0.04
0.01 0.01 0.00 0.00 0.01 0.02 0.03 0.04 0.04 0.03 0.02 0.01 0.00 0.01 0.02 0.02 0.00 0.00 0.00 0.01 0.01 0.01 0.01 0.01 0.00 0.00 0.00 0.00 0.01 0.01 0.01 0.01 0.03 0.04 0.04 0.05 0.05 0.05 0.05 0.04 0.05 0.05 0.06 0.06
0.02 0.01 0.00 0.00 0.01 0.01 0.02 0.03 0.03 0.02 0.01 0.00 0.00 0.00 0.00 0.01 0.00 0.00 0.00 0.01 0.01 0.00 0.01 0.01 0.00 0.00 0.00 0.00 0.01 0.01 0.01 0.01 0.01 0.02 0.03 0.03 0.03 0.04 0.04 0.04 0.03 0.03 0.03 0.04
0.02 0.01 0.00 0.00 0.01 0.01 0.02 0.03 0.03 0.03 0.02 0.01 0.00 0.00 0.00 0.00 0.00 0.00 0.00 0.00 0.00 0.00 0.00 0.00 0.00 0.00 0.00 0.00 0.00 0.01 0.01 0.01 0.01 0.01 0.02 0.02 0.03 0.03 0.04 0.04 0.04 0.04 0.03 0.03
0.01 0.01 0.01 0.00 0.00 0.01 0.01 0.03 0.03 0.02 0.02 0.01 0.00 0.00 0.00 0.00 0.00 0.00 0.00 0.00 0.00 0.00 0.00 0.00 0.00 0.00 0.00 0.00 0.00 0.01 0.01 0.01 0.01 0.01 0.01 0.02 0.03 0.03 0.03 0.02 0.02 0.02 0.02 0.02
0.01 0.01 0.01 0.00 0.00 0.01 0.01 0.02 0.02 0.02 0.01 0.01 0.00 0.00 0.00 0.00 0.00 0.00 0.00 0.00 0.00 0.00 0.00 0.00 0.00 0.00 0.00 0.00 0.00 0.00 0.01 0.01 0.01 0.02 0.02 0.02 0.02 0.02 0.02 0.02 0.02 0.02 0.03 0.02
0.02 0.01 0.01 0.01 0.00 0.00 0.00 0.01 0.01 0.01 0.01 0.00 0.00 0.00 0.00 0.00 0.00 0.00 0.00 0.00 0.00 0.00 0.00 0.00 0.00 0.00 0.00 0.00 0.00 0.01 0.01 0.01 0.02 0.02 0.03 0.02 0.02 0.02 0.02 0.01 0.02 0.02 0.02 0.02
0.02 0.02 0.01 0.00 0.00 0.00 0.00 0.00 0.00 0.01 0.01 0.00 0.00 0.00 0.00 0.00 0.00 0.00 0.00 0.00 0.00 0.00 0.00 0.00 0.00 0.00 0.00 0.00 0.00 0.01 0.01 0.01 0.02 0.02 0.02 0.02 0.02 0.02 0.02 0.01 0.01 0.01 0.01 0.01
0.01 0.01 0.01 0.00 0.00 0.00 0.00 0.00 0.00 0.00 0.00 0.00 0.00 0.00 0.00 0.00 0.00 0.00 0.00 0.00 0.00 0.00 0.00 0.00 0.00 0.00 0.00 0.00 0.00 0.00 0.01 0.01 0.01 0.01 0.02 0.02 0.02 0.02 0.02 0.01 0.01 0.01 0.01 0.01
0.01 0.01 0.00 0.00 0.00 0.00 0.00 0.00 0.00 0.00 0.00 0.00 0.00 0.00 0.00 0.00 0.00 0.00 0.00 0.00 0.00 0.00 0.00 0.00 0.00 0.00 0.00 0.00 0.00 0.00 0.00 0.01 0.01 0.01 0.01 0.01 0.01 0.02 0.02 0.01 0.01 0.01 0.01 0.01
0.01 0.01 0.01 0.00 0.00 0.00 0.00 0.00 0.00 0.00 0.00 0.00 0.00 0.00 0.00 0.00 0.00 0.00 0.00 0.00 0.00 0.00 0.00 0.00 0.00 0.00 0.00 0.00 0.00 0.00 0.00 0.00 0.00 0.01 0.01 0.01 0.01 0.01 0.01 0.01 0.01 0.01 0.01 0.01
0.01 0.01 0.01 0.01 0.01 0.01 0.00 0.00 0.00 0.00 0.00 0.00 0.00 0.00 0.00 0.00 0.00 0.00 0.00 0.00 0.00 0.00 0.00 0.00 0.00 0.00 0.00 0.00 0.00 0.00 0.00 0.00 0.00 0.00 0.00 0.01 0.00 0.01 0.01 0.01 0.01 0.01 0.01 0.01
0.01 0.01 0.02 0.02 0.01 0.01 0.00 0.00 0.00 0.00 0.00 0.00 0.00 0.00 0.00 0.00 0.00 0.00 0.00 0.00 0.00 0.00 0.00 0.00 0.00 0.00 0.00 0.00 0.00 0.00 0.00 0.00 0.00 0.00 0.00 0.00 0.00 0.00 0.00 0.00 0.00 0.00 0.00 0.00
0.01 0.01 0.02 0.02 0.02 0.01 0.00 0.00 0.00 0.00 0.00 0.00 0.00 0.00 0.00 0.00 0.00 0.00 0.00 0.00 0.00 0.00 0.00 0.00 0.00 0.00 0.00 0.00 0.00 0.00 0.00 0.00 0.00 0.00 0.00 0.00 0.00 0.00 0.00 0.00 0.00 0.00 0.00 0.00
0.02 0.03 0.03 0.02 0.02 0.01 0.00 0.00 0.00 0.00 0.00 0.00 0.00 0.00 0.00 0.00 0.00 0.00 0.00 0.00 0.00 0.00 0.00 0.00 0.00 0.00 0.00 0.00 0.00 0.00 0.00 0.00 0.00 0.00 0.00 0.00 0.00 0.00 0.01 0.01 0.01 0.01 0.01 0.01
0.01 0.01 0.02 0.02 0.02 0.01 0.00 0.00 0.00 0.00 0.00 0.00 0.00 0.00 0.00 0.00 0.00 0.00 0.00 0.00 0.00 0.00 0.00 0.00 0.00 0.00 0.00 0.00 0.00 0.00 0.00 0.00 0.00 0.00 0.00 0.00 0.00 0.00 0.00 0.00 0.00 0.01 0.01 0.01
0.01 0.01 0.01 0.01 0.01 0.01 0.00 0.00 0.01 0.00 0.00 0.00 0.00 0.00 0.00 0.00 0.00 0.00 0.00 0.00 0.00 0.00 0.00 0.00 0.00 0.00 0.00 0.00 0.00 0.00 0.00 0.00 0.00 0.00 0.00 0.00 0.00 0.00 0.00 0.01 0.01 0.01 0.01 0.01
0.01 0.01 0.01 0.01 0.01 0.01 0.01 0.01 0.01 0.01 0.00 0.00 0.00 0.00 0.00 0.00 0.00 0.00 0.00 0.00 0.00 0.00 0.00 0.00 0.00 0.00 0.00 0.00 0.00 0.00 0.00 0.00 0.00 0.00 0.00 0.00 0.00 0.01 0.01 0.01 0.01 0.01 0.01 0.01
0.01 0.01 0.02 0.02 0.01 0.01 0.01 0.01 0.01 0.01 0.01 0.01 0.01 0.01 0.01 0.00 0.00 0.00 0.00 0.00 0.00 0.00 0.00 0.00 0.00 0.00 0.00 0.00 0.00 0.00 0.00 0.00 0.00 0.00 0.00 0.00 0.01 0.01 0.01 0.01 0.01 0.01 0.01 0.01
0.01 0.01 0.01 0.01 0.01 0.01 0.01 0.01 0.01 0.01 0.01 0.01 0.01 0.00 0.00 0.00 0.00 0.00 0.00 0.00 0.00 0.00 0.00 0.00 0.00 0.00 0.00 0.00 0.00 0.00 0.00 0.00 0.00 0.01 0.01 0.01 0.01 0.01 0.01 0.01 0.01 0.01 0.01 0.01
MSLP
1024.46 1025.13 1025.77 1026.34 1026.82 1027.19 1027.45 1027.61 1027.68 1027.71 1027.69 1027.67 1027.64 1027.61 1027.59 1027.56 1027.53 1027.48 1027.41 1027.33 1027.25 1027.17 1027.13 1027.13 1027.20 1027.32 1027.50 1027.74 1028.00 1028.27 1028.53 1028.76 1028.93 1029.07 1029.16 1029.22 1029.27 1029.32 1029.38 1029.46 1029.57 1029.71 1029.87 1030.05
1025.75 1026.35 1026.89 1027.33 1027.68 1027.94 1028.10 1028.19 1028.23 1028.22 1028.17 1028.10 1028.01 1027.90 1027.76 1027.61 1027.45 1027.28 1027.10 1026.93 1026.77 1026.64 1026.54 1026.49 1026.49 1026.55 1026.67 1026.85 1027.08 1027.34 1027.62 1027.89 1028.14 1028.35 1028.52 1028.64 1028.73 1028.79 1028.85 1028.90 1028.98 1029.10 1029.25 1029.44
1027.05 1027.58 1028.02 1028.35 1028.59 1028.74 1028.83 1028.87 1028.85 1028.80 1028.71 1028.57 1028.39 1028.17 1027.92 1027.64 1027.36 1027.08 1026.82 1026.58 1026.37 1026.19 1026.04 1025.92 1025.84 1025.81 1025.85 1025.94 1026.10 1026.33 1026.60 1026.91 1027.21 1027.50 1027.75 1027.94 1028.07 1028.15 1028.20 1028.23 1028.28 1028.36 1028.50 1028.70
1028.24 1028.71 1029.06 1029.30 1029.45 1029.53 1029.57 1029.56 1029.50 1029.40 1029.24 1029.01 1028.72 1028.38 1027.99 1027.59 1027.21 1026.85 1026.54 1026.27 1026.03 1025.83 1025.64 1025.46 1025.30 1025.17 1025.09 1025.07 1025.13 1025.29 1025.54 1025.85 1026.20 1026.54 1026.86 1027.10 1027.27 1027.37 1027.41 1027.42 1027.44 1027.49 1027.61 1027.81
1029.24 1029.65 1029.92 1030.10 1030.19 1030.24 1030.24 1030.20 1030.12 1029.96 1029.72 1029.39 1028.97 1028.49 1027.97 1027.45 1026.97 1026.55 1026.21 1025.94 1025.73 1025.53 1025.33 1025.12 1024.89 1024.65 1024.45 1024.30 1024.25 1024.31 1024.49 1024.78 1025.13 1025.51 1025.86 1026.14 1026.34 1026.45 1026.48 1026.47 1026.47 1026.50 1026.61 1026.81
1029.99 1030.33 1030.55 1030.69 1030.76 1030.80 1030.80 1030.76 1030.66 1030.45 1030.13 1029.69 1029.13 1028.50 1027.84 1027.20 1026.64 1026.19 1025.85 1025.61 1025.43 1025.28 1025.11 1024.88 1024.60 1024.28 1023.96 1023.68 1023.50 1023.44 1023.53 1023.76 1024.08 1024.44 1024.80 1025.10 1025.32 1025.43 1025.46 1025.44 1025.42 1025.45 1025.56 1025.76
1030.47 1030.75 1030.93 1031.05 1031.14 1031.20 1031.24 1031.23 1031.12 1030.88 1030.49 1029.93 1029.24 1028.46 1027.66 1026.91 1026.28 1025.79 1025.47 1025.27 1025.16 1025.08 1024.95 1024.75 1024.44 1024.06 1023.64 1023.24 1022.92 1022.74 1022.71 1022.84 1023.10 1023.42 1023.76 1024.05 1024.26 1024.37 1024.40 1024.38 1024.36 1024.39 1024.50 1024.73
1030.69 1030.91 1031.08 1031.21 1031.34 1031.47 1031.57 1031.61 1031.52 1031.27 1030.81 1030.16 1029.35 1028.43 1027.50 1026.65 1025.94 1025.43 1025.12 1024.97 1024.93 1024.93 1024.87 1024.69 1024.39 1023.97 1023.48 1022.97 1022.53 1022.21 1022.06 1022.09 1022.25 1022.51 1022.80 1023.06 1023.25 1023.35 1023.37 1023.36 1023.34 1023.38 1023.50 1023.74
1030.70 1030.89 1031.05 1031.22 1031.41 1031.62 1031.81 1031.92 1031.88 1031.63 1031.15 1030.42 1029.51 1028.49 1027.44 1026.49 1025.72 1025.18 1024.87 1024.76 1024.78 1024.84 1024.84 1024.72 1024.43 1023.99 1023.44 1022.85 1022.30 1021.87 1021.60 1021.50 1021.57 1021.74 1021.96 1022.18 1022.34 1022.43 1022.45 1022.43 1022.42 1022.46 1022.59 1022.82
1030.60 1030.76 1030.93 1031.14 1031.41 1031.71 1031.99 1032.18 1032.20 1031.98 1031.49 1030.73 1029.75 1028.64 1027.52 1026.49 1025.66 1025.08 1024.77 1024.68 1024.73 1024.83 1024.88 1024.78 1024.51 1024.06 1023.48 1022.83 1022.20 1021.67 1021.29 1021.09 1021.05 1021.13 1021.29 1021.45 1021.58 1021.64 1021.64 1021.62 1021.60 1021.64 1021.75 1021.97
1030.47 1030.61 1030.80 1031.05 1031.39 1031.77 1032.13 1032.39 1032.47 1032.29 1031.81 1031.04 1030.04 1028.89 1027.72 1026.64 1025.77 1025.16 1024.82 1024.72 1024.78 1024.89 1024.94 1024.86 1024.60 1024.15 1023.54 1022.85 1022.17 1021.56 1021.10 1020.81 1020.68 1020.69 1020.77 1020.88 1020.96 1020.99 1020.97 1020.93 1020.89 1020.90 1020.98 1021.16
1030.40 1030.54 1030.73 1031.01 1031.38 1031.80 1032.21 1032.52 1032.63 1032.48 1032.03 1031.28 1030.29 1029.14 1027.97 1026.88 1025.99 1025.35 1024.99 1024.86 1024.88 1024.97 1025.01 1024.92 1024.65 1024.19 1023.57 1022.87 1022.15 1021.50 1020.98 1020.62 1020.43 1020.36 1020.38 1020.43 1020.47 1020.46 1020.41 1020.33 1020.26 1020.22 1020.25 1020.36
1030.48 1030.60 1030.79 1031.06 1031.41 1031.82 1032.21 1032.51 1032.62 1032.48 1032.05 1031.34 1030.39 1029.29 1028.15 1027.10 1026.22 1025.57 1025.18 1025.01 1024.99 1025.03 1025.03 1024.91 1024.62 1024.15 1023.53 1022.83 1022.10 1021.44 1020.89 1020.49 1020.25 1020.12 1020.08 1020.08 1020.07 1020.02 1019.93 1019.80 1019.68 1019.57 1019.53 1019.56
1030.74 1030.84 1030.98 1031.20 1031.48 1031.80 1032.10 1032.32 1032.38 1032.21 1031.79 1031.11 1030.22 1029.20 1028.15 1027.16 1026.33 1025.70 1025.30 1025.09 1025.02 1025.00 1024.95 1024.79 1024.48 1024.01 1023.41 1022.73 1022.02 1021.37 1020.82 1020.41 1020.13 1019.96 1019.87 1019.81 1019.74 1019.65 1019.50 1019.32 1019.14 1018.97 1018.84 1018.77
1031.18 1031.24 1031.31 1031.41 1031.55 1031.71 1031.85 1031.93 1031.86 1031.62 1031.17 1030.53 1029.71 1028.79 1027.85 1026.97 1026.21 1025.64 1025.26 1025.03 1024.92 1024.85 1024.76 1024.57 1024.25 1023.80 1023.23 1022.59 1021.93 1021.31 1020.79 1020.37 1020.08 1019.87 1019.73 1019.62 1019.49 1019.33 1019.13 1018.90 1018.65 1018.41 1018.20 1018.05
1031.76 1031.76 1031.72 1031.66 1031.60 1031.54 1031.45 1031.31 1031.07 1030.71 1030.21 1029.58 1028.84 1028.03 1027.22 1026.47 1025.84 1025.35 1025.00 1024.79 1024.67 1024.57 1024.45 1024.25 1023.95 1023.54 1023.03 1022.46 1021.88 1021.32 1020.84 1020.44 1020.13 1019.89 1019.69 1019.52 1019.33 1019.10 1018.84 1018.54 1018.23 1017.93 1017.65 1017.42
1032.39 1032.32 1032.14 1031.89 1031.59 1031.26 1030.89 1030.49 1030.05 1029.54 1028.97 1028.34 1027.66 1026.97 1026.31 1025.71 1025.21 1024.83 1024.56 1024.38 1024.28 1024.19 1024.08 1023.90 1023.65 1023.30 1022.88 1022.41 1021.93 1021.45 1021.02 1020.65 1020.32 1020.05 1019.79 1019.54 1019.27 1018.97 1018.64 1018.28 1017.92 1017.56 1017.23 1016.94
1032.97 1032.81 1032.49 1032.04 1031.48 1030.86 1030.21 1029.54 1028.87 1028.21 1027.55 1026.91 1026.30 1025.73 1025.21 1024.77 1024.42 1024.17 1023.99 1023.89 1023.83 1023.78 1023.71 1023.59 1023.42 1023.17 1022.87 1022.52 1022.15 1021.77 1021.39 1021.04 1020.70 1020.38 1020.05 1019.71 1019.35 1018.97 1018.56 1018.15 1017.73 1017.33 1016.95 1016.62
1033.37 1033.12 1032.66 1032.01 1031.22 1030.34 1029.43 1028.52 1027.64 1026.84 1026.11 1025.47 1024.92 1024.47 1024.10 1023.82 1023.62 1023.50 1023.43 1023.42 1023.43 1023.45 1023.45 1023.42 1023.35 1023.23 1023.06 1022.84 1022.58 1022.30 1021.98 1021.64 1021.28 1020.89 1020.48 1020.05 1019.58 1019.11 1018.62 1018.14 1017.68 1017.24 1016.84 1016.47
1033.48 1033.15 1032.57 1031.76 1030.77 1029.69 1028.56 1027.46 1026.44 1025.53 1024.77 1024.16 1023.69 1023.35 1023.12 1023.00 1022.95 1022.97 1023.02 1023.10 1023.20 1023.31 1023.40 1023.47 1023.52 1023.52 1023.49 1023.40 1023.25 1023.04 1022.77 1022.43 1022.03 1021.57 1021.07 1020.52 1019.96 1019.38 1018.82 1018.28 1017.77 1017.30 1016.87 1016.48
1033.21 1032.82 1032.13 1031.20 1030.09 1028.86 1027.60 1026.39 1025.30 1024.36 1023.62 1023.06 1022.69 1022.48 1022.41 1022.44 1022.54 1022.69 1022.86 1023.05 1023.24 1023.44 1023.63 1023.80 1023.96 1024.09 1024.16 1024.18 1024.12 1023.97 1023.72 1023.37 1022.92 1022.38 1021.77 1021.12 1020.45 1019.78 1019.14 1018.54 1018.00 1017.50 1017.05 1016.64
1032.53 1032.06 1031.30 1030.30 1029.12 1027.84 1026.54 1025.31 1024.23 1023.34 1022.67 1022.22 1021.99 1021.93 1022.01 1022.19 1022.44 1022.72 1023.01 1023.31 1023.60 1023.88 1024.16 1024.43 1024.68 1024.90 1025.07 1025.16 1025.15 1025.03 1024.78 1024.39 1023.88 1023.26 1022.55 1021.81 1021.04 1020.29 1019.59 1018.94 1018.36 1017.85 1017.38 1016.94
1031.40 1030.86 1030.05 1029.03 1027.84 1026.58 1025.34 1024.19 1023.21 1022.44 1021.91 1021.62 1021.55 1021.66 1021.91 1022.26 1022.65 1023.07 1023.49 1023.89 1024.27 1024.64 1024.99 1025.33 1025.65 1025.93 1026.14 1026.26 1026.27 1026.15 1025.86 1025.43 1024.85 1024.15 1023.37 1022.54 1021.70 1020.90 1020.15 1019.48 1018.88 1018.35 1017.87 1017.41
1029.84 1029.22 1028.38 1027.37 1026.25 1025.09 1023.98 1022.99 1022.19 1021.61 1021.29 1021.20 1021.32 1021.62 1022.06 1022.57 1023.12 1023.68 1024.22 1024.72 1025.20 1025.64 1026.06 1026.45 1026.80 1027.10 1027.32 1027.43 1027.42 1027.25 1026.92 1026.43 1025.79 1025.03 1024.19 1023.31 1022.44 1021.61 1020.85 1020.17 1019.57 1019.04 1018.55 1018.07
1027.87 1027.17 1026.33 1025.37 1024.37 1023.37 1022.46 1021.70 1021.14 1020.81 1020.73 1020.87 1021.21 1021.73 1022.35 1023.04 1023.75 1024.45 1025.12 1025.73 1026.30 1026.81 1027.28 1027.69 1028.05 1028.33 1028.52 1028.59 1028.53 1028.30 1027.91 1027.36 1026.67 1025.88 1025.02 1024.13 1023.26 1022.44 1021.70 1021.04 1020.46 1019.94 1019.45 1018.97
1025.55 1024.80 1023.98 1023.12 1022.28 1021.50 1020.84 1020.36 1020.08 1020.03 1020.21 1020.60 1021.17 1021.89 1022.71 1023.58 1024.45 1025.29 1026.08 1026.81 1027.46 1028.04 1028.54 1028.96 1029.30 1029.55 1029.69 1029.69 1029.55 1029.26 1028.81 1028.22 1027.51 1026.71 1025.87 1025.01 1024.18 1023.42 1022.73 1022.11 1021.57 1021.07 1020.60 1020.10
Thickness
5566 5561 5556 5558 5560 5567 5566 5566 5565 5566 5567 5566 5567 5571 5580 5579 5575 5573 5571 5570 5570 5572 5572 5569 5566 5564 5562 5559 5557 5556 5554 5553 5553 5552 5552 5552 5551 5550 5549 5548 5547 5545 5543 5542
5559 5553 5553 5554 5558 5561 5561 5562 5561 5560 5562 5562 5561 5566 5575 5576 5576 5575 5574 5571 5570 5569 5567 5566 5563 5561 5559 5557 5555 5553 5551 5550 5549 5549 5548 5547 5546 5543 5542 5541 5539 5538 5536 5535
5557 5549 5550 5554 5554 5557 5556 5556 5556 5555 5554 5557 5557 5572 5578 5580 5575 5574 5572 5570 5569 5568 5566 5564 5561 5559 5556 5554 5552 5552 5550 5548 5546 5544 5543 5541 5539 5536 5535 5533 5532 5531 5529 5527
5542 5543 5547 5551 5549 5554 5557 5551 5551 5551 5552 5550 5552 5558 5576 5575 5573 5576 5575 5569 5567 5566 5564 5561 5559 5556 5554 5553 5550 5548 5546 5544 5542 5541 5538 5536 5534 5531 5529 5527 5525 5522 5521 5519
5540 5539 5544 5549 5547 5548 5549 5547 5547 5548 5547 5545 5545 5548 5565 5569 5576 5580 5577 5572 5568 5566 5563 5560 5557 5555 5553 5550 5547 5544 5542 5540 5539 5536 5534 5531 5528 5526 5523 5521 5518 5516 5514 5512
5534 5535 5536 5541 5541 5543 5543 5543 5543 5536 5536 5543 5547 5545 5559 5565 5578 5581 5578 5573 5568 5564 5561 5558 5555 5552 5550 5546 5543 5540 5538 5536 5533 5531 5528 5526 5523 5521 5517 5515 5512 5510 5507 5505
5539 5536 5533 5534 5540 5540 5542 5541 5532 5533 5522 5534 5540 5541 5558 5577 5576 5578 5577 5571 5566 5561 5558 5555 5553 5550 5547 5543 5539 5536 5534 5532 5529 5526 5524 5521 5518 5516 5513 5510 5507 5504 5501 5499
5543 5540 5532 5530 5537 5538 5539 5542 5537 5538 5532 5533 5535 5541 5569 5577 5575 5572 5570 5566 5562 5559 5556 5554 5551 5547 5544 5541 5537 5532 5530 5528 5525 5522 5519 5516 5513 5511 5508 5505 5503 5499 5496 5494
5539 5539 5529 5528 5530 5535 5537 5530 5531 5520 5507 5515 5534 5543 5564 5574 5573 5570 5567 5564 5561 5558 5555 5552 5548 5545 5542 5538 5534 5530 5527 5523 5520 5517 5514 5511 5508 5505 5503 5500 5496 5493 5490 5488
5535 5532 5528 5525 5527 5527 5530 5525 5517 5516 5524 5529 5541 5547 5560 5578 5575 5570 5565 5561 5559 5556 5553 5550 5545 5541 5538 5535 5531 5527 5523 5520 5516 5512 5509 5507 5503 5500 5497 5494 5491 5488 5485 5482
5526 5527 5525 5523 5523 5527 5523 5521 5517 5508 5510 5522 5531 5557 5571 5575 5574 5568 5563 5559 5556 5553 5550 5546 5542 5537 5534 5530 5527 5523 5519 5515 5511 5508 5505 5501 5498 5495 5492 5489 5486 5482 5479 5475
5518 5515 5516 5521 5515 5514 5519 5522 5516 5521 5513 5505 5519 5552 5576 5567 5564 5561 5558 5555 5552 5549 5546 5541 5537 5533 5529 5526 5523 5519 5516 5512 5508 5504 5500 5496 5493 5489 5486 5483 5480 5476 5473 5469
5514 5513 5517 5524 5517 5506 5509 5512 5510 5508 5502 5493 5505 5551 5568 5561 5559 5556 5552 5550 5547 5544 5541 5537 5533 5529 5526 5523 5520 5516 5512 5508 5504 5499 5495 5491 5487 5484 5481 5478 5474 5470 5467 5463
5511 5505 5515 5530 5532 5518 5508 5507 5503 5502 5498 5497 5513 5544 5563 5562 5558 5554 5550 5547 5542 5539 5536 5534 5530 5527 5523 5520 5516 5512 5507 5503 5499 5494 5490 5486 5482 5479 5475 5472 5469 5465 5461 5458
5501 5498 5493 5498 5501 5501 5505 5509 5502 5503 5510 5515 5533 5533 5559 5559 5554 5550 5547 5543 5539 5537 5534 5532 5528 5524 5520 5516 5512 5508 5504 5499 5494 5489 5484 5481 5476 5472 5469 5466 5462 5459 5455 5451
5486 5485 5483 5487 5490 5490 5495 5506 5504 5506 5508 5511 5520 5535 5556 5550 5544 5541 5539 5537 5536 5535 5533 5530 5526 5522 5518 5514 5509 5505 5500 5494 5489 5484 5480 5475 5470 5466 5462 5458 5455 5451 5447 5443
5473 5474 5481 5488 5478 5487 5501 5521 5514 5509 5510 5514 5524 5547 5550 5544 5541 5538 5535 5533 5533 5533 5531 5528 5525 5521 5517 5512 5507 5501 5496 5490 5484 5479 5474 5469 5464 5459 5455 5451 5447 5443 5439 5435
5467 5465 5461 5463 5478 5503 5541 5533 5523 5518 5520 5518 5529 5540 5541 5541 5538 5535 5532 5531 5531 5531 5528 5525 5522 5518 5513 5508 5502 5496 5490 5484 5479 5473 5468 5463 5457 5452 5448 5443 5439 5435 5430 5427
5465 5462 5451 5453 5470 5487 5521 5522 5511 5510 5524 5529 5526 5533 5531 5527 5526 5534 5536 5531 5531 5529 5526 5522 5518 5514 5508 5503 5497 5491 5484 5478 5473 5468 5463 5457 5451 5445 5440 5436 5431 5427 5422 5418
5452 5452 5446 5443 5468 5488 5535 5523 5509 5515 5526 5537 5526 5528 5524 5516 5519 5537 5537 5528 5525 5522 5518 5514 5509 5505 5500 5496 5490 5485 5479 5473 5468 5464 5458 5451 5445 5439 5434 5429 5424 5419 5415 5410
5439 5437 5438 5438 5452 5483 5513 5503 5504 5515 5536 5536 5524 5523 5515 5512 5526 5529 5525 5521 5518 5515 5511 5506 5501 5497 5494 5489 5483 5478 5473 5469 5464 5458 5451 5444 5438 5432 5426 5421 5416 5411 5406 5402
5450 5439 5434 5431 5446 5489 5502 5490 5504 5522 5525 5523 5517 5513 5510 5511 5513 5512 5511 5510 5507 5504 5502 5498 5493 5489 5485 5480 5475 5471 5467 5463 5456 5449 5443 5436 5430 5424 5419 5413 5408 5402 5397 5393
5454 5467 5462 5469 5495 5504 5493 5498 5504 5504 5506 5509 5506 5505 5502 5501 5501 5501 5500 5498 5496 5494 5492 5488 5484 5480 5475 5470 5467 5463 5459 5452 5446 5440 5434 5428 5422 5417 5411 5405 5400 5394 5388 5384
5446 5449 5452 5453 5479 5487 5484 5486 5488 5489 5492 5496 5496 5495 5492 5491 5492 5490 5489 5488 5486 5483 5480 5477 5473 5468 5465 5461 5457 5453 5448 5442 5436 5431 5425 5420 5414 5408 5402 5397 5392 5386 5381 5376
5455 5437 5439 5448 5470 5472 5480 5480 5484 5484 5481 5481 5482 5481 5481 5480 5481 5480 5479 5478 5476 5473 5469 5465 5462 5460 5456 5450 5446 5442 5437 5432 5426 5421 5416 5411 5405 5399 5393 5388 5383 5378 5374 5369
5444 5441 5447 5472 5474 5470 5484 5485 5479 5474 5474 5473 5472 5472 5471 5469 5471 5470 5468 5466 5463 5460 5456 5452 5449 5447 5443 5438 5434 5429 5425 5421 5417 5411 5406 5401 5395 5390 5384 5378 5373 5370 5365 5361